Find KUIPER-00507

NORAD ID: 68887 Int'l Des: 2026-095Z Owner: kuiper Country: USA Constellation: kuiper operational
LEOCIRCULAR

实时位置

正在加载3D地球...

关于 KUIPER-00507

正在加载描述...

即将过境

Passes for default location (London). Set your location on the main map for personalized predictions.

高度历史

Loading altitude history...

两行轨道根数

1 68887U 26095Z 26121.83336806 .00061074 00000-0 15795-2 0 9995
2 68887 51.8825 106.4751 0000895 45.6885 129.0612 15.38508903 1307
Epoch: May 1, 2026 • Age: 4 hours

当前状态

高度 454.0 km
速度 7.64 km/s
星下点 -14.79°S, 123.7°W
类型 internet

Most Searched